Regional Weather Roundup
Issued by NWS Green Bay, WI

Home | Current Version | Previous Version | Graphics & Text | Print | Product List | Glossary Off
Versions: 1 2 3 4 5 6 7 8 9 10 11 12 13 14 15 16 17 18 19 20 21 22 23 24 25 26 27 28 29 30 31 32 33 34 35 36 37 38 39 40 41 42 43 44 45 46 47 48 49 50

690
ASUS43 KGRB 042200
RWRGRB

NORTH-CENTRAL AND NORTHEAST WISCONSIN REGIONAL WEATHER ROUNDUP
NATIONAL WEATHER SERVICE GREEN BAY WI
500 PM CDT WED MAY 04 2016

WIZ005-009-010>012-018-019-042300-
NORTH CENTRAL WISCONSIN

CITY           SKY/WX    TMP DP  RH WIND       PRES   REMARKS
IRONWOOD         N/A     48  30  49 NE8       29.95R
MANITOWISH WTR NOT AVBL
ARBOR VITAE    NOT AVBL
EAGLE RIVER    NOT AVBL
LAND O LAKES   NOT AVBL
RHINELANDER    PTSUNNY   49  31  49 N15G23    29.93R
PHILLIPS       MOSUNNY   53  32  45 N18       29.92S
ANTIGO         NOT AVBL
TOMAHAWK       NOT AVBL
MERRILL        NOT AVBL
$$

WIZ013-073-042300-
NORTHEAST WISCONSIN

CITY           SKY/WX    TMP DP  RH WIND       PRES   REMARKS
IRON MOUNTAIN  CLOUDY    45  31  58 NW18G28   29.90R
MARINETTE      PTSUNNY   50  32  50 NE18G24   29.88R
$$

WIZ017-030-035>037-045-042300-
CENTRAL WISCONSIN

CITY           SKY/WX    TMP DP  RH WIND       PRES   REMARKS
MEDFORD        NOT AVBL
WAUSAU         MOSUNNY   56  32  40 N16G26    29.87R
MOSINEE        MOSUNNY   55  32  41 N20G25    29.88R
MARSHFIELD     SUNNY     59  27  29 N17G30    29.87R
WISC RAPIDS    SUNNY     61  25  25 N18G26    29.86R
STEVENS POINT  NOT AVBL
WAUPACA        SUNNY     58  32  37 N17G23    29.85R
SHAWANO        CLOUDY    55  34  44 N15G25    29.85S
CLINTONVILLE   NOT AVBL
WAUTOMA        MOSUNNY   59  32  36 N18G24    29.83R
$$

WIZ038-039-048-051-042300-
FOX VALLEY

CITY           SKY/WX    TMP DP  RH WIND       PRES   REMARKS
NWS GREEN BAY  CLOUDY    53  36  52 NE18      29.85R
APPLETON       PTSUNNY   54  30  40 N18G25    29.82R
OSHKOSH        CLOUDY    54  35  48 N17G25    29.82R
FOND DU LAC    CLOUDY    54  37  52 N14       29.83R
$$

WIZ022-050-052-042300-
EAST CENTRAL WISCONSIN

CITY           SKY/WX    TMP DP  RH WIND       PRES   REMARKS
EPHRAIM        NOT AVBL
STURGEON BAY   MOSUNNY   46  32  57 N20G29    29.88R
MANITOWOC      NOT AVBL
SHEBOYGAN      CLOUDY    45  37  73 NE14      29.83R
$$

LMZ563-521-522-541>543-042300-
LAKESHORE

STATION/POSITION TIME  TEMP    WIND        PRES    VSBY  WAVE
                       AIR SEA DIR/SP/G                  HT/PER
                 (UTC) (F)     (DEG/KT/KT) (MB)    (MI)  (FT/S)
SHEBOYGAN LKSHOR 2100   42      30/ 18/ 20 1010.2R
KEWAUNEE LKSHORE 2100   49     360/ 16/ 21 1009.3R
ALGOMA MARINA    2100          360/ 21/ 28   N/A
NORTHPORT PIER   2105   41     340/ 23     1010.8S
N MID LAKE BUOY  2050   41 39  330/ 19/ 23 1009.7R         4/ 4
CHAMBERS ISLAND  2100   45     340/ 18/ 20 1010.8S
MENOMINEE LKSHOR 2100   46     340/ 22/ 25 1009.6R
$$




USA.gov is the U.S. government's official web portal to all federal, state and local government web resources and services.